Wind_Speed
7 7 7 6 6 6 7 9 11 14 15 16 16 16 16 14 13 10 11 10 10 9 9 10 10 9 7 6 5 4 5 5 5 5 5 6 6 6 7 7 7 7 7 7 7 6 6 6 5
8 7 6 6 7 8 9 10 12 15 17 18 17 16 15 14 14 12 12 10 11 12 11 10 11 10 9 7 6 6 5 5 5 5 6 6 7 7 7 8 8 8 8 8 8 8 7 7 6
8 7 6 6 6 8 10 12 15 17 19 20 19 17 17 14 13 12 11 11 11 12 12 12 12 11 10 8 8 7 6 6 6 6 6 7 8 8 8 8 9 9 9 9 9 9 8 8 7
7 7 6 6 7 9 11 15 17 20 22 21 19 19 18 15 12 11 11 10 10 12 13 13 13 12 11 10 9 8 7 6 6 6 7 8 8 9 9 9 10 10 10 10 10 10 10 9 9
5 5 4 7 9 11 13 17 20 21 23 21 19 19 18 15 11 10 10 11 10 11 13 15 15 13 12 10 9 8 7 6 6 7 8 8 9 9 9 10 10 10 10 11 11 11 10 10 10
3 3 6 7 9 12 15 18 22 23 22 20 19 17 17 14 11 10 11 11 11 12 13 15 16 14 13 12 9 8 7 7 7 8 9 9 9 10 10 10 10 10 10 10 10 10 10 9 9
3 5 6 6 9 11 16 19 20 22 21 21 19 16 16 15 12 11 11 11 12 13 13 14 16 15 14 12 10 9 8 8 8 9 9 9 10 10 10 10 10 10 10 10 10 10 10 10 10
4 5 5 6 9 11 15 19 20 20 20 19 18 17 17 17 14 11 11 12 11 12 13 14 15 16 15 13 11 10 9 8 9 9 9 10 10 10 10 10 10 10 10 10 10 10 10 10 10
4 4 6 8 10 13 16 18 19 19 18 17 18 17 17 17 15 12 11 11 12 13 14 15 15 16 15 14 12 10 10 9 9 9 9 10 10 10 9 9 9 9 9 9 9 9 10 10 10
3 4 6 9 10 13 15 17 19 20 18 17 17 17 17 17 14 12 10 11 12 12 13 14 16 16 16 15 12 11 10 10 9 9 9 9 9 9 9 8 7 8 8 8 9 9 9 9 9
3 4 6 8 10 11 13 17 19 20 19 18 18 19 18 16 13 11 9 9 11 13 13 14 15 16 16 16 14 13 11 10 10 9 9 8 8 8 7 7 7 7 7 7 7 8 8 8 8
2 4 6 8 10 12 14 16 18 20 20 20 19 19 17 14 11 9 8 8 10 12 13 14 16 16 16 16 16 14 11 10 9 9 7 6 6 6 6 6 5 5 6 6 6 6 7 8 8
4 5 6 8 11 12 14 16 18 19 19 20 19 18 16 14 10 7 6 7 9 11 13 14 16 15 15 15 15 13 10 9 8 7 6 6 5 5 5 4 5 5 5 5 5 5 6 6 6
4 5 7 10 12 13 14 17 19 21 20 21 19 17 14 13 10 7 5 5 8 10 12 13 13 14 13 13 13 12 10 8 8 7 7 6 5 4 4 3 3 3 4 4 4 3 4 5 5
3 5 8 11 13 14 15 17 19 22 22 22 19 16 15 13 10 9 7 6 8 10 12 12 11 12 12 12 12 11 10 9 8 7 7 6 5 4 3 2 1 1 1 1 1 1 2 3 3
3 6 9 12 15 15 16 18 19 21 21 20 18 17 14 12 10 9 8 6 8 10 11 10 11 12 12 12 12 11 10 9 8 7 7 6 5 4 3 2 2 1 1 1 1 1 1 2 2
5 7 11 14 16 18 18 19 18 19 18 17 16 16 14 11 9 8 8 8 9 11 11 11 12 13 13 13 12 11 10 9 8 8 7 6 5 4 3 3 3 2 2 2 2 2 2 2 3
5 8 11 14 16 18 19 20 21 19 18 16 15 15 13 11 10 9 6 7 8 11 12 11 12 13 13 13 13 12 11 10 8 8 7 6 6 5 4 4 4 3 3 3 3 3 3 4 4
6 9 13 15 16 18 19 20 20 19 18 15 14 14 13 12 10 9 6 4 6 9 11 12 12 13 13 13 13 12 11 10 9 9 8 7 7 6 6 5 5 4 4 4 5 5 5 5 5
7 11 14 15 16 19 19 19 19 17 15 13 12 12 12 12 10 9 6 3 6 7 10 13 12 12 13 13 13 12 12 11 10 10 9 8 8 7 7 6 6 5 5 5 5 5 5 6 6
7 12 15 16 17 18 20 18 18 15 12 12 11 11 11 11 10 8 6 2 4 7 10 11 11 12 13 13 13 13 13 12 11 11 10 10 9 8 8 7 6 6 5 4 4 4 4 4 5
9 12 15 16 17 17 17 16 15 15 10 9 9 10 10 10 9 8 6 3 3 7 8 10 11 11 13 13 13 13 14 13 13 12 12 11 10 9 9 8 7 6 5 4 3 2 3 3 4
10 13 15 16 18 18 17 17 15 12 7 5 8 9 8 8 8 8 6 4 1 5 7 9 10 11 12 13 13 13 14 14 14 14 13 12 11 10 9 8 8 7 6 4 3 1 1 1 2
12 14 16 16 18 19 18 16 15 11 7 5 6 8 7 6 7 7 6 4 1 3 5 8 10 11 11 13 14 14 14 15 15 15 14 13 12 11 10 9 9 8 7 5 4 3 2 2 3
14 15 17 18 17 18 18 17 13 9 7 5 5 6 6 6 7 7 6 4 1 1 5 7 10 11 11 13 14 15 16 15 15 15 15 14 13 12 11 10 10 9 8 7 6 5 5 5 5
12 15 18 19 18 17 17 17 13 9 8 6 5 6 6 5 5 5 5 4 2 1 4 7 9 10 11 13 14 16 17 16 16 16 16 15 14 13 13 13 12 12 11 10 10 9 8 8 8
12 14 16 18 18 18 18 17 13 10 10 7 7 6 6 4 3 3 3 3 2 1 3 6 9 10 11 12 13 15 15 16 16 16 17 17 16 15 15 15 14 14 14 13 13 12 12 12 12
16 15 16 18 19 20 19 18 16 13 10 7 6 6 5 4 4 3 3 3 3 2 2 5 7 8 11 12 13 14 16 17 17 17 18 18 17 17 17 17 17 17 17 16 16 16 16 16 15
18 19 19 19 20 21 21 19 18 16 11 8 7 5 5 5 4 4 3 3 4 3 2 4 6 8 10 11 13 14 16 17 18 18 19 19 19 19 19 19 19 19 19 19 19 19 19 19 19
22 21 21 22 22 23 22 19 19 16 13 10 9 7 6 5 4 4 4 4 4 4 3 4 5 8 11 12 14 15 17 18 19 19 20 20 21 21 21 21 21 22 22 22 21 22 22 22 22
Wind_Direction
355 352 347 346 352 343 344 352 352 349 341 336 329 320 309 300 294 284 272 256 241 227 216 212 208 204 205 211 219 233 244 257 270 281 289 293 295 296 296 296 297 295 294 294 295 298 302 303 303
349 346 346 349 346 336 337 349 356 345 339 332 326 319 309 300 297 281 271 255 237 226 217 210 208 207 208 210 218 228 241 248 260 274 285 291 292 293 295 295 295 293 291 290 290 291 293 295 295
346 345 347 347 324 328 340 345 350 347 338 332 326 322 314 305 298 285 271 254 234 223 217 212 208 208 207 208 215 222 232 246 259 271 281 287 290 291 292 292 293 291 288 286 286 286 287 287 286
349 351 345 324 317 327 344 347 346 340 334 331 327 323 315 308 302 290 272 253 230 219 216 211 210 208 208 209 214 220 230 244 258 269 277 283 287 290 291 290 292 289 286 284 284 284 283 281 279
350 352 326 313 320 330 339 340 336 335 330 328 327 321 315 312 308 291 272 254 229 216 214 211 207 205 210 212 214 220 230 244 257 267 275 281 286 288 289 290 291 290 287 285 283 283 281 278 276
348 320 285 309 326 334 333 330 328 328 327 328 327 319 313 310 305 284 263 243 222 216 212 211 206 205 210 214 217 220 230 242 253 264 272 279 285 288 289 290 291 291 290 287 284 282 280 278 276
319 287 287 319 337 337 330 328 325 322 321 325 326 321 314 310 299 287 265 248 232 220 213 212 210 209 210 212 217 223 232 241 251 262 271 280 287 289 289 290 290 289 287 286 284 283 279 277 276
307 287 304 338 342 334 328 327 326 321 322 326 326 321 315 309 300 291 271 252 230 218 212 211 214 212 211 212 216 223 231 241 253 263 272 280 285 287 290 290 287 286 284 285 285 283 280 276 275
289 305 338 352 347 340 336 334 333 333 331 330 328 323 319 312 305 298 275 243 234 226 219 217 216 211 211 211 216 224 232 242 252 262 272 277 282 285 289 290 285 284 284 286 286 285 282 279 277
289 331 355 1 359 350 343 340 337 340 342 338 332 324 319 316 310 298 268 242 227 220 216 218 213 209 209 213 217 225 233 241 251 262 270 275 279 282 283 284 283 284 284 285 285 285 284 282 281
306 359 7 5 355 347 341 342 341 343 346 343 338 333 326 321 314 300 263 229 212 214 216 215 215 212 211 214 217 223 231 241 250 257 264 270 273 279 281 281 283 286 286 285 285 287 287 285 283
333 5 4 350 345 344 344 346 345 345 346 342 341 336 331 323 311 297 268 221 214 215 214 213 217 221 222 220 218 219 226 237 243 251 257 259 263 271 274 278 286 287 284 285 284 285 286 286 288
347 359 352 344 341 342 343 346 348 346 345 345 341 335 326 322 312 307 270 231 218 215 216 218 219 222 223 221 221 217 222 230 232 234 242 243 249 257 263 275 282 284 285 287 288 284 286 290 294
359 1 353 351 350 344 344 349 350 349 345 345 345 339 331 322 309 304 283 243 214 210 210 213 216 220 221 217 215 213 219 223 223 228 232 233 234 242 254 268 276 281 287 292 292 290 291 299 301
343 354 351 349 348 348 347 351 350 347 343 343 344 342 339 328 317 305 287 265 229 220 213 214 221 216 214 207 204 206 211 215 218 222 224 219 219 229 233 237 246 249 278 318 329 328 323 322 326
320 339 348 347 349 347 346 349 348 344 342 342 343 340 340 334 321 309 293 267 234 223 215 219 213 208 205 200 198 199 208 209 210 211 211 204 205 213 209 190 174 158 129 67 29 24 9 5 6
302 334 343 344 341 341 341 341 340 339 341 342 346 346 349 341 334 324 298 267 237 226 221 221 212 210 205 201 196 199 204 204 207 207 199 195 196 197 185 165 152 134 116 97 78 61 45 40 36
302 331 333 339 335 333 335 335 334 334 338 343 347 353 353 349 342 334 318 269 240 222 213 209 206 207 203 197 196 199 198 200 204 202 197 191 187 181 171 160 148 129 115 104 92 77 68 60 54
312 323 321 322 321 325 329 331 331 331 334 339 345 353 354 355 348 342 328 272 233 221 212 208 203 201 200 197 194 194 195 198 201 198 194 189 182 171 167 160 148 133 120 109 97 88 82 69 62
305 312 309 312 318 319 320 322 325 327 333 341 348 351 358 357 1 355 348 262 218 220 204 199 199 200 198 196 195 194 198 201 201 195 192 187 180 172 168 161 148 140 129 116 105 92 85 73 64
293 301 298 302 308 311 312 315 320 326 331 339 343 349 355 355 359 358 354 302 215 199 191 193 193 193 192 194 195 198 198 200 198 194 193 189 183 178 175 170 161 154 146 131 112 94 80 70 62
279 288 291 295 298 304 311 318 320 323 325 342 352 351 353 356 3 5 1 5 186 180 184 195 194 195 197 200 199 199 199 199 198 196 194 191 187 184 183 183 178 174 167 155 137 109 83 72 58
263 279 286 290 295 303 309 315 321 324 323 353 9 1 354 354 3 6 3 6 176 181 190 198 202 204 202 201 199 199 199 199 200 200 197 193 191 190 191 193 193 193 191 188 183 168 102 60 37
255 272 280 289 296 304 312 315 322 319 328 351 7 10 4 360 7 7 6 13 45 184 199 204 205 206 203 202 202 200 199 200 200 199 196 198 198 199 200 203 205 206 207 210 214 225 254 296 321
257 268 279 285 292 303 313 321 330 327 327 343 1 10 6 2 2 4 7 8 9 202 208 210 209 208 208 207 206 203 204 205 205 206 205 206 206 209 211 214 217 219 221 226 235 248 265 279 292
254 264 277 287 294 303 311 320 327 323 324 328 350 2 360 358 355 355 360 6 349 300 218 206 205 206 206 208 210 209 208 209 211 211 211 214 216 220 224 226 229 232 236 241 247 255 264 274 282
250 264 274 283 291 295 303 314 320 316 323 329 338 345 353 358 357 352 354 355 349 317 231 210 209 210 210 208 207 208 207 210 211 214 218 221 223 228 231 233 236 240 244 249 254 260 266 272 278
256 267 272 279 288 290 295 302 319 320 318 325 324 335 344 354 340 328 331 327 324 314 255 218 214 208 206 207 211 212 212 213 216 219 224 225 227 233 235 238 242 246 250 253 257 263 267 271 275
255 263 270 278 284 286 291 297 309 314 315 318 318 325 335 331 324 306 302 319 318 306 269 219 219 216 212 213 217 218 221 221 221 225 228 229 233 237 240 243 246 250 254 257 260 264 268 271 274
257 261 267 274 278 282 284 290 299 306 306 310 320 320 317 310 302 300 299 301 305 292 266 244 231 225 224 225 225 226 230 230 229 232 234 236 239 241 244 248 251 254 257 260 263 265 267 270 273
Height
5903 5901 5900 5899 5897 5897 5895 5894 5893 5891 5890 5890 5889 5888 5887 5887 5888 5890 5887 5886 5887 5888 5889 5890 5892 5893 5894 5895 5897 5897 5898 5898 5898 5898 5898 5898 5898 5897 5897 5896 5895 5894 5893 5893 5892 5892 5891 5890 5890
5902 5901 5900 5898 5896 5895 5895 5893 5891 5890 5889 5888 5887 5886 5885 5884 5884 5884 5883 5883 5884 5885 5887 5889 5890 5891 5893 5894 5896 5896 5897 5897 5898 5898 5898 5898 5897 5897 5896 5895 5895 5894 5893 5892 5892 5891 5891 5890 5889
5902 5900 5899 5897 5895 5894 5893 5891 5890 5888 5887 5886 5885 5883 5882 5882 5882 5881 5880 5881 5882 5883 5885 5886 5888 5890 5891 5893 5894 5895 5896 5896 5897 5897 5897 5897 5897 5896 5896 5895 5894 5893 5892 5891 5891 5890 5890 5889 5888
5902 5900 5898 5897 5894 5892 5891 5890 5889 5887 5886 5885 5883 5881 5880 5879 5879 5879 5877 5878 5879 5881 5882 5884 5886 5888 5890 5891 5893 5894 5895 5895 5896 5896 5896 5896 5896 5895 5895 5894 5893 5892 5891 5890 5890 5889 5889 5888 5887
5901 5900 5898 5895 5892 5891 5889 5889 5888 5886 5884 5882 5881 5878 5877 5876 5876 5876 5875 5875 5876 5878 5880 5882 5883 5886 5888 5890 5891 5892 5893 5894 5894 5895 5895 5895 5894 5894 5893 5893 5892 5891 5890 5889 5888 5888 5887 5887 5886
5900 5899 5898 5895 5892 5890 5888 5887 5886 5885 5883 5881 5879 5877 5873 5873 5873 5873 5871 5872 5872 5874 5877 5879 5881 5884 5886 5888 5889 5891 5892 5892 5893 5893 5894 5893 5893 5892 5892 5891 5890 5889 5889 5888 5887 5886 5886 5885 5885
5900 5898 5896 5894 5892 5890 5889 5887 5886 5884 5881 5880 5877 5874 5871 5870 5870 5870 5868 5869 5869 5871 5874 5877 5880 5882 5884 5886 5888 5889 5890 5891 5891 5892 5892 5892 5891 5891 5890 5889 5888 5888 5887 5886 5885 5885 5884 5883 5883
5899 5898 5895 5893 5891 5890 5888 5886 5885 5882 5880 5878 5875 5872 5869 5867 5867 5866 5865 5865 5867 5869 5872 5875 5878 5880 5882 5884 5885 5887 5888 5889 5889 5890 5890 5890 5889 5889 5888 5887 5887 5886 5885 5885 5884 5883 5882 5882 5881
5899 5898 5894 5892 5891 5889 5887 5885 5883 5880 5877 5875 5873 5869 5867 5864 5864 5862 5862 5862 5865 5867 5869 5872 5874 5877 5879 5882 5884 5885 5886 5887 5888 5888 5888 5888 5887 5887 5886 5886 5885 5884 5884 5883 5882 5882 5881 5880 5879
5897 5896 5894 5892 5890 5888 5886 5884 5881 5878 5875 5873 5870 5867 5864 5861 5860 5859 5858 5859 5862 5865 5867 5870 5872 5874 5877 5879 5881 5883 5884 5885 5886 5886 5886 5886 5885 5885 5885 5884 5883 5883 5882 5882 5881 5880 5879 5878 5878
5895 5894 5892 5891 5890 5888 5885 5883 5879 5875 5873 5870 5867 5864 5860 5858 5857 5855 5855 5856 5859 5861 5864 5867 5870 5872 5874 5877 5879 5881 5882 5883 5884 5884 5884 5884 5884 5883 5883 5883 5882 5881 5881 5880 5879 5879 5878 5877 5876
5894 5892 5891 5890 5889 5887 5884 5881 5878 5874 5872 5869 5865 5862 5859 5857 5855 5853 5852 5853 5857 5860 5862 5865 5867 5869 5872 5874 5876 5878 5879 5881 5882 5882 5882 5882 5882 5882 5882 5882 5881 5880 5880 5879 5878 5878 5877 5876 5875
5893 5891 5890 5888 5887 5885 5882 5879 5876 5873 5870 5867 5864 5861 5857 5854 5852 5851 5852 5853 5855 5858 5860 5862 5864 5867 5869 5872 5874 5876 5877 5878 5879 5880 5881 5881 5881 5881 5881 5881 5880 5879 5878 5878 5877 5877 5876 5875 5874
5892 5890 5889 5888 5885 5883 5880 5878 5874 5870 5867 5865 5862 5859 5855 5852 5849 5849 5850 5851 5854 5856 5858 5860 5862 5865 5867 5869 5872 5873 5875 5876 5878 5878 5879 5879 5880 5880 5880 5880 5879 5878 5878 5877 5876 5876 5875 5874 5873
5891 5890 5888 5886 5884 5881 5879 5876 5873 5869 5865 5862 5860 5857 5854 5851 5847 5847 5848 5849 5851 5854 5856 5858 5860 5862 5865 5867 5869 5871 5873 5874 5876 5877 5877 5878 5878 5879 5879 5879 5878 5878 5877 5876 5876 5875 5875 5874 5873
5889 5888 5886 5885 5882 5880 5879 5875 5872 5867 5864 5861 5857 5854 5852 5850 5847 5845 5845 5847 5849 5851 5853 5856 5858 5860 5863 5865 5867 5869 5871 5872 5874 5875 5876 5877 5877 5878 5878 5878 5878 5877 5877 5876 5876 5875 5875 5874 5873
5887 5885 5884 5883 5880 5878 5876 5873 5870 5866 5863 5860 5857 5855 5852 5849 5846 5844 5843 5844 5845 5847 5850 5852 5855 5858 5860 5863 5865 5868 5869 5871 5872 5874 5875 5875 5876 5877 5877 5877 5877 5877 5876 5876 5876 5875 5874 5874 5873
5885 5883 5882 5881 5879 5877 5874 5872 5869 5865 5862 5859 5856 5854 5851 5848 5845 5843 5841 5841 5842 5844 5847 5850 5853 5856 5859 5861 5864 5866 5867 5869 5871 5872 5873 5874 5875 5876 5876 5876 5877 5876 5876 5876 5876 5875 5874 5874 5873
5882 5881 5880 5879 5877 5875 5872 5870 5868 5864 5861 5858 5855 5852 5850 5847 5844 5841 5840 5840 5841 5842 5844 5848 5851 5854 5857 5860 5862 5864 5866 5868 5869 5871 5872 5873 5874 5875 5876 5876 5876 5876 5876 5876 5876 5875 5875 5874 5873
5879 5879 5879 5878 5875 5873 5871 5869 5867 5863 5860 5858 5855 5851 5849 5846 5843 5841 5840 5839 5840 5841 5844 5847 5850 5852 5855 5857 5859 5861 5864 5866 5868 5869 5871 5872 5873 5874 5875 5876 5876 5876 5876 5876 5876 5876 5875 5874 5873
5877 5878 5877 5876 5874 5872 5870 5868 5865 5862 5859 5857 5854 5851 5848 5846 5844 5842 5841 5840 5840 5841 5842 5845 5848 5850 5852 5855 5857 5860 5862 5864 5866 5868 5870 5871 5872 5873 5874 5875 5876 5876 5876 5876 5876 5876 5875 5875 5874
5874 5875 5874 5873 5872 5870 5869 5866 5864 5860 5857 5855 5852 5850 5848 5846 5844 5842 5841 5839 5840 5840 5842 5844 5846 5849 5851 5853 5855 5857 5860 5862 5864 5867 5868 5870 5871 5872 5873 5874 5875 5876 5876 5876 5876 5875 5875 5875 5874
5870 5871 5871 5870 5869 5867 5866 5864 5862 5858 5856 5853 5851 5849 5847 5846 5844 5842 5841 5839 5839 5840 5841 5843 5844 5847 5849 5851 5853 5856 5858 5861 5863 5865 5867 5868 5870 5871 5872 5873 5874 5874 5875 5875 5875 5875 5874 5874 5874
5867 5867 5867 5867 5866 5865 5863 5861 5859 5857 5854 5852 5850 5848 5847 5846 5844 5842 5841 5839 5838 5839 5840 5841 5843 5845 5847 5849 5852 5854 5856 5859 5861 5863 5865 5867 5868 5869 5871 5871 5872 5873 5873 5873 5873 5873 5873 5873 5873
5864 5864 5864 5863 5863 5862 5860 5858 5857 5854 5853 5851 5849 5847 5845 5844 5843 5842 5841 5839 5838 5838 5839 5840 5842 5844 5846 5847 5849 5852 5854 5857 5859 5861 5863 5864 5866 5867 5869 5870 5870 5871 5871 5871 5872 5871 5871 5871 5871
5861 5861 5861 5860 5859 5858 5856 5855 5854 5852 5850 5849 5847 5845 5844 5843 5842 5841 5840 5839 5838 5838 5838 5839 5840 5842 5843 5845 5847 5850 5852 5854 5857 5859 5861 5862 5864 5865 5866 5867 5868 5868 5869 5869 5869 5869 5868 5868 5868
5856 5857 5857 5856 5855 5854 5853 5852 5851 5849 5848 5847 5845 5844 5842 5841 5841 5840 5840 5839 5838 5837 5837 5838 5839 5840 5842 5843 5845 5847 5850 5852 5854 5856 5858 5860 5861 5862 5863 5864 5864 5865 5865 5865 5865 5865 5865 5865 5864
5852 5853 5853 5853 5852 5850 5850 5849 5849 5847 5846 5845 5844 5843 5841 5840 5840 5839 5839 5838 5838 5837 5836 5836 5837 5838 5840 5842 5844 5846 5848 5849 5851 5853 5855 5856 5857 5858 5859 5860 5860 5861 5861 5861 5861 5861 5861 5860 5860
5849 5849 5849 5849 5848 5847 5846 5848 5846 5845 5844 5843 5842 5841 5840 5839 5838 5837 5837 5837 5836 5835 5835 5835 5836 5837 5838 5840 5841 5843 5845 5846 5848 5849 5851 5851 5852 5853 5854 5855 5856 5856 5856 5856 5856 5856 5856 5855 5855
5843 5844 5845 5845 5844 5843 5843 5845 5842 5841 5841 5841 5840 5839 5838 5837 5836 5836 5836 5835 5835 5834 5834 5834 5834 5834 5836 5837 5838 5840 5841 5842 5844 5845 5847 5847 5848 5849 5850 5850 5851 5851 5851 5851 5850 5850 5850 5849 5849